• In Moldova, Republic
  • List of Countries
  • For 7 days
  • Water Temperature
  • Satellite Maps
  • Weather Map
  • Weather Widgets
  • user-avatar
    Login

    Hourly Weather Townsville

    Today, 21 April, Saturday

    Time Temperature Precipitation Wind Pressure Humidity
    00:00 +24°C° 0.2 mm 3 mps 754 mmHg 95%
    01:00 +22°C° 0.2 mm 3 mps 754 mmHg 95%
    02:00 +22°C° 0.2 mm 3 mps 754 mmHg 95%
    03:00 +22°C° 0.2 mm 3 mps 754 mmHg 95%
    04:00 +22°C° 0 mm 3 mps 753 mmHg 96%
    05:00 +22°C° 0.1 mm 3 mps 754 mmHg 95%
    06:00 +22°C° 0.1 mm 3 mps 754 mmHg 95%
    07:00 +22°C° 0.1 mm 3 mps 754 mmHg 95%
    08:00 +25°C° 0 mm 3 mps 754 mmHg 85%
    09:00 +27°C° 0 mm 3 mps 754 mmHg 75%
    10:00 +29°C° 0 mm 3 mps 754 mmHg 65%
    11:00 +30°C° 0 mm 4 mps 754 mmHg 59%
    12:00 +32°C° 0 mm 4 mps 753 mmHg 53%
    13:00 +33°C° 0 mm 4 mps 753 mmHg 46%
    14:00 +33°C° 0 mm 4 mps 752 mmHg 49%
    15:00 +32°C° 0 mm 4 mps 752 mmHg 51%
    16:00 +32°C° 0 mm 4 mps 752 mmHg 53%
    17:00 +29°C° 0.2 mm 4 mps 752 mmHg 65%
    18:00 +27°C° 0.2 mm 4 mps 752 mmHg 77%
    19:00 +25°C° 0.2 mm 4 mps 752 mmHg 88%
    20:00 +23°C° 0.1 mm 4 mps 753 mmHg 88%
    21:00 +23°C° 0.1 mm 4 mps 753 mmHg 88%
    22:00 +23°C° 0.1 mm 4 mps 753 mmHg 88%
    23:00 +22°C° 0.1 mm 4 mps 753 mmHg 88%

    Tomorrow, 22 April, Sunday

    Time Temperature Precipitation Wind Pressure Humidity
    00:00 +22°C° 0.1 mm 4 mps 753 mmHg 89%
    01:00 +22°C° 0.1 mm 3 mps 753 mmHg 90%
    02:00 +22°C° 0.2 mm 3 mps 753 mmHg 91%
    03:00 +21°C° 0.2 mm 3 mps 753 mmHg 92%
    04:00 +21°C° 0.2 mm 3 mps 753 mmHg 93%
    05:00 +21°C° 0.1 mm 3 mps 753 mmHg 93%
    06:00 +21°C° 0.1 mm 3 mps 753 mmHg 93%
    07:00 +21°C° 0.1 mm 3 mps 754 mmHg 94%
    08:00 +24°C° 0 mm 3 mps 754 mmHg 83%
    09:00 +26°C° 0 mm 4 mps 754 mmHg 73%
    10:00 +28°C° 0 mm 4 mps 754 mmHg 63%
    11:00 +29°C° 0 mm 4 mps 754 mmHg 57%
    12:00 +32°C° 0 mm 4 mps 753 mmHg 51%
    13:00 +33°C° 0 mm 4 mps 753 mmHg 46%
    14:00 +32°C° 0 mm 4 mps 752 mmHg 48%
    15:00 +32°C° 0 mm 4 mps 752 mmHg 50%
    16:00 +32°C° 0 mm 4 mps 751 mmHg 52%
    17:00 +29°C° 0.6 mm 4 mps 752 mmHg 65%
    18:00 +26°C° 0.6 mm 4 mps 752 mmHg 78%
    19:00 +23°C° 0.6 mm 4 mps 753 mmHg 91%
    20:00 +23°C° 1.1 mm 4 mps 753 mmHg 92%
    21:00 +23°C° 1.1 mm 4 mps 753 mmHg 92%
    22:00 +22°C° 1.1 mm 4 mps 754 mmHg 93%
    23:00 +22°C° 0.7 mm 4 mps 753 mmHg 93%

    Day after tomorrow, 23 April, Monday

    Time Temperature Precipitation Wind Pressure Humidity
    00:00 +22°C° 0.7 mm 3 mps 753 mmHg 93%
    01:00 +22°C° 0.7 mm 3 mps 753 mmHg 93%
    02:00 +21°C° 0.1 mm 3 mps 753 mmHg 94%
    03:00 +21°C° 0.1 mm 3 mps 753 mmHg 94%
    04:00 +21°C° 0.1 mm 3 mps 752 mmHg 95%
    05:00 +20°C° 0 mm 3 mps 753 mmHg 94%
    06:00 +20°C° 0 mm 3 mps 753 mmHg 93%
    07:00 +20°C° 0 mm 3 mps 754 mmHg 93%
    08:00 +22°C° 0 mm 3 mps 754 mmHg 82%
    09:00 +25°C° 0 mm 4 mps 754 mmHg 72%
    10:00 +28°C° 0 mm 4 mps 754 mmHg 62%
    11:00 +29°C° 0 mm 4 mps 753 mmHg 57%
    12:00 +30°C° 0 mm 4 mps 753 mmHg 52%
    13:00 +32°C° 0 mm 4 mps 752 mmHg 47%
    14:00 +32°C° 0 mm 4 mps 752 mmHg 50%
    15:00 +30°C° 0 mm 4 mps 751 mmHg 53%
    16:00 +30°C° 0 mm 4 mps 751 mmHg 56%
    17:00 +28°C° 0.1 mm 4 mps 752 mmHg 67%
    18:00 +26°C° 0.1 mm 4 mps 752 mmHg 79%
    19:00 +23°C° 0.1 mm 4 mps 752 mmHg 90%
    20:00 +23°C° 0.2 mm 4 mps 753 mmHg 90%
    21:00 +22°C° 0.2 mm 4 mps 753 mmHg 91%
    22:00 +22°C° 0.2 mm 4 mps 754 mmHg 92%
    23:00 +22°C° 0.2 mm 3 mps 753 mmHg 92%

    24 April, Tuesday

    Time Temperature Precipitation Wind Pressure Humidity
    00:00 +21°C° 0.2 mm 3 mps 753 mmHg 92%
    01:00 +21°C° 0.2 mm 3 mps 753 mmHg 92%
    02:00 +21°C° 0.1 mm 3 mps 753 mmHg 92%
    03:00 +20°C° 0.1 mm 3 mps 752 mmHg 93%
    04:00 +20°C° 0.1 mm 3 mps 752 mmHg 93%
    05:00 +20°C° 0 mm 3 mps 752 mmHg 92%
    06:00 +20°C° 0 mm 3 mps 753 mmHg 91%
    07:00 +20°C° 0 mm 3 mps 753 mmHg 90%
    08:00 +22°C° 0 mm 3 mps 753 mmHg 78%
    09:00 +26°C° 0 mm 4 mps 754 mmHg 66%
    10:00 +28°C° 0 mm 4 mps 754 mmHg 54%
    11:00 +29°C° 0 mm 4 mps 753 mmHg 50%
    12:00 +30°C° 0 mm 4 mps 752 mmHg 46%
    13:00 +32°C° 0 mm 4 mps 752 mmHg 41%
    14:00 +32°C° 0 mm 4 mps 751 mmHg 43%
    15:00 +32°C° 0 mm 4 mps 751 mmHg 44%
    16:00 +32°C° 0 mm 4 mps 751 mmHg 46%
    17:00 +28°C° 0 mm 4 mps 751 mmHg 59%
    18:00 +26°C° 0 mm 4 mps 752 mmHg 73%
    19:00 +24°C° 0 mm 3 mps 752 mmHg 86%
    20:00 +24°C° 0.1 mm 3 mps 753 mmHg 88%
    21:00 +22°C° 0.1 mm 3 mps 753 mmHg 90%
    22:00 +22°C° 0.1 mm 3 mps 753 mmHg 91%
    23:00 +22°C° 0.1 mm 3 mps 753 mmHg 91%

    25 April, Wednesday

    Time Temperature Precipitation Wind Pressure Humidity
    00:00 +21°C° 0.1 mm 3 mps 753 mmHg 91%
    01:00 +21°C° 0.1 mm 3 mps 753 mmHg 91%
    02:00 +21°C° 0 mm 3 mps 753 mmHg 91%
    03:00 +20°C° 0 mm 3 mps 752 mmHg 91%
    04:00 +20°C° 0 mm 3 mps 752 mmHg 91%
    05:00 +20°C° 0 mm 3 mps 752 mmHg 90%
    06:00 +20°C° 0 mm 3 mps 753 mmHg 90%
    07:00 +20°C° 0 mm 3 mps 753 mmHg 89%
    08:00 +22°C° 0 mm 3 mps 753 mmHg 77%
    09:00 +26°C° 0 mm 3 mps 753 mmHg 65%
    10:00 +28°C° 0 mm 3 mps 753 mmHg 54%
    11:00 +29°C° 0 mm 3 mps 753 mmHg 49%
    12:00 +30°C° 0 mm 3 mps 752 mmHg 44%
    13:00 +31°C° 0 mm 3 mps 752 mmHg 39%
    14:00 +32°C° 0 mm 4 mps 751 mmHg 41%
    15:00 +32°C° 0 mm 4 mps 751 mmHg 43%
    16:00 +32°C° 0 mm 4 mps 751 mmHg 45%
    17:00 +28°C° 0 mm 3 mps 751 mmHg 58%
    18:00 +26°C° 0 mm 3 mps 752 mmHg 72%
    19:00 +24°C° 0 mm 3 mps 752 mmHg 86%
    20:00 +24°C° 0.1 mm 3 mps 753 mmHg 88%
    21:00 +22°C° 0.1 mm 3 mps 753 mmHg 91%
    22:00 +23°C° 0.1 mm 2 mps 753 mmHg 93%
    23:00 +23°C° 0.1 mm 2 mps 753 mmHg 93%

    26 April, Thursday

    Time Temperature Precipitation Wind Pressure Humidity
    00:00 +23°C° 0.1 mm 2 mps 753 mmHg 94%
    01:00 +21°C° 0.1 mm 2 mps 752 mmHg 94%
    02:00 +21°C° 0 mm 2 mps 752 mmHg 94%
    03:00 +21°C° 0 mm 2 mps 752 mmHg 94%
    04:00 +20°C° 0 mm 2 mps 752 mmHg 94%
    05:00 +20°C° 0 mm 2 mps 753 mmHg 94%
    06:00 +20°C° 0 mm 2 mps 753 mmHg 93%
    07:00 +21°C° 0 mm 2 mps 754 mmHg 92%
    08:00 +24°C° 0 mm 3 mps 754 mmHg 80%
    09:00 +26°C° 0 mm 3 mps 754 mmHg 68%
    10:00 +28°C° 0 mm 3 mps 754 mmHg 56%
    11:00 +30°C° 0 mm 3 mps 753 mmHg 50%
    12:00 +31°C° 0 mm 3 mps 753 mmHg 45%
    13:00 +33°C° 0 mm 3 mps 752 mmHg 39%
    14:00 +33°C° 0 mm 3 mps 752 mmHg 41%
    15:00 +32°C° 0 mm 4 mps 752 mmHg 43%
    16:00 +32°C° 0 mm 4 mps 752 mmHg 44%
    17:00 +29°C° 0 mm 3 mps 752 mmHg 58%
    18:00 +26°C° 0 mm 3 mps 752 mmHg 71%
    19:00 +24°C° 0 mm 3 mps 753 mmHg 84%
    20:00 +24°C° 0.1 mm 3 mps 753 mmHg 86%
    21:00 +24°C° 0.1 mm 3 mps 754 mmHg 87%
    22:00 +22°C° 0.1 mm 3 mps 754 mmHg 89%
    23:00 +23°C° 0 mm 2 mps 754 mmHg 89%
    Show more